STARLINK-36131, 67032

Orbit data source: Space-Track

STARLINK-36131, 67032 is a payload satellite owned by SpaceX/Seattle (US) in LEO that was launched on Thu, 11 Dec 2025 UTC via an FALCON 9 launch vehicle from the Air Force Eastern Test Range (AFETR). Payload-class satellites include a variety of spacecraft equipped with specific instruments for various scientific and technological missions. These include communications satellites like Starlink; space stations such as the ISS; scientific satellites like the Hubble; Earth observation satellites from companies like Planet Labs, Umbra, and HawkEye 360; GPS; miniature CubeSats for education and research; and military/defense satellites.

Loading next visibility...
Identifier
67032, 2025-294C
Orbit
LEO
Country
Flag of USUS
Related business
Manufacturer
SpaceX/Seattle
Mission
Operational Commercial Communications
Bus & Motor
STARLINK V2MO, Unknown motor
Mass
575 kg wet, ~530 kg dry
Launch date (UTC)
2025-12-11 (6 months ago)
Launch vehicle
FALCON 9
Launch site
Air Force Eastern Test Range (AFETR)
Object type
Payload
Rocket body
Debris
Shape & HBR
Box + 2 Pan, 17.7 m
Radar Cross Section
36.964 m², Large (>1 m²)

Expand to show TLE details & history
Last TLE update: 20 hours ago

TLE from 20 hours ago
0 STARLINK-36131
1 67032U 25294C   26171.02691301  .00013029  00000-0  48196-3 0  9995
2 67032  43.0038 179.8575 0003339 303.6159  56.4374 15.27591757 30455
Epoch: 2026-06-20T00:38Z
TLE epoch observation values (Epoch: 2026-06-20T00:38:45.284Z)
Latitude
0.00001°
Longitude
-98.07861°
Altitude
481.524 km
Speed
7.627 km/s
True Right ascension
11h 59m 25s
True Declination
0° 00' 00"
Sunlit
Object was in daylight at epoch
Visualization orbit readout
Latitude
Unknown
Longitude
Unknown
Altitude
Unknown
Speed
Unknown
Apparent Right ascension
Unknown
Apparent Declination
Unknown
Sunlit
N/A
Visualization observer readout
Local Sidereal Time
07:14:01
Azimuth
Unknown
Elevation
Unknown
Doppler factor
Unknown
Orbital elements
Apogee altitude
487.25 km
Perigee altitude
482.667 km
Semi-major axis
6,863.095 km
Eccentricity
0.00033
Inclination
43.0038°
RAAN
179.8575°
Arg. of periapsis
303.6159°
True anomaly
56.46929°
Mean anomaly
56.4374°
Eccentric anomaly
56.45334°
Mean motion
3.81736 °/min
Orbital period
94.31 mins
BSTAR
0.00048196
Loading maneuver chart data...
Computing Atmospheric mass density...
Loading historical data...
Loading historical data...
Loading historical data...
Loading historical data...
Loading historical data...
Loading historical data...
Loading historical data...

Documentation

Showing up to 5 results
|